Du Bois, PA

7:58 AM EST on November 18, 2017 (GMT -0500)
Du Bois-Jefferson County

Weather History for KDUJ - September, 2013

Change the Weather History Date:

Friday, September 20, 2013

  Actual Average Record
Temperature  
Mean Temperature 66 °F 58 °F  
Max Temperature 78 °F 68 °F 84 °F (1965)
Min Temperature 53 °F 48 °F 35 °F (1962)
Degree Days  
Heating Degree Days 0 7  
Month to date heating degree days 95 89  
Since 1 July heating degree days 133 151  
Cooling Degree Days 1 1  
Month to date cooling degree days 37 27  
Year to date cooling degree days 523 358  
Growing Degree Days 15 (Base 50)    
Moisture  
Dew Point 56 °F    
Average Humidity 77    
Maximum Humidity 93    
Minimum Humidity 60    
Precipitation  
Precipitation 0.00 in 0.12 in 1.46 in (1997)
Month to date precipitation 0.61 2.51  
Year to date precipitation 32.12  
Sea Level Pressure  
Sea Level Pressure 30.03 in    
Wind  
Wind Speed 5 mph (SE)    
Max Wind Speed 9 mph    
Max Gust Speed 14 mph    
Visibility 4 miles    
Events Fog    
T = Trace of Precipitation, MM = Missing Value Source: NWS Daily Summary

Daily Weather History Graph

Daily Weather History Graph

Search for Another Location

Airport or City:

Trip Planner

Search our weather history database for the weather conditions in past years. The results will help you decide how hot, cold, wet, or windy it might be!

Date:

Astronomy

Sep. 20, 2013 Rise Set
Actual Time 7:01 AM EDT 7:15 PM EDT
Civil Twilight 6:33 AM EDT 7:43 PM EDT
Nautical Twilight 6:01 AM EDT 8:15 PM EDT
Astronomical Twilight 5:28 AM EDT 8:48 PM EDT
Moon 7:47 PM EDT (9/20) 8:15 AM EDT (9/20)
Length of Visible Light 13h 09m
Length of Day
12h 14m
Full, 98% of the Moon is Illuminated
Sep 20
Full
Sep 26
Last Quarter
Oct 4
New
Oct 11
First Quarter
Oct 18
Full

Hourly Weather History & Observations

Time (EDT) Temp. Dew Point Humidity Pressure Visibility Wind Dir Wind Speed Gust Speed Precip Events Conditions
12:18 AM 55.4 °F 53.6 °F 94% 30.08 in 2.5 mi Calm Calm - N/A   Clear
12:38 AM 57.2 °F 53.6 °F 88% 30.08 in 0.8 mi Calm Calm - N/A   Clear
12:56 AM 54.0 °F 52.0 °F 93% 30.07 in 0.5 mi Calm Calm - N/A Fog Fog
1:08 AM 55.4 °F 53.6 °F 94% 30.08 in 1.0 mi Calm Calm - N/A   Clear
1:13 AM 55.4 °F 53.6 °F 94% 30.08 in 0.5 mi Calm Calm - N/A Fog Fog
1:20 AM 55.4 °F 53.6 °F 94% 30.08 in 0.2 mi Calm Calm - N/A Fog Fog
1:32 AM 57.2 °F 55.4 °F 94% 30.08 in 1.0 mi Calm Calm - N/A   Mostly Cloudy
1:43 AM 55.4 °F 53.6 °F 94% 30.08 in 0.2 mi Calm Calm - N/A Fog Fog
1:56 AM 57.0 °F 54.0 °F 89% 30.06 in 0.2 mi Calm Calm - N/A Fog Fog
2:01 AM 57.2 °F 55.4 °F 94% 30.08 in 1.0 mi Calm Calm - N/A   Mostly Cloudy
2:11 AM 57.2 °F 55.4 °F 94% 30.07 in 2.5 mi Calm Calm - N/A   Mostly Cloudy
2:19 AM 57.2 °F 55.4 °F 94% 30.08 in 4.0 mi Calm Calm - N/A   Scattered Clouds
2:45 AM 55.4 °F 53.6 °F 94% 30.07 in 0.8 mi ENE 3.5 mph - N/A   Clear
2:56 AM 55.9 °F 54.0 °F 93% 30.05 in 0.5 mi Calm Calm - N/A Fog Fog
3:14 AM 55.4 °F 53.6 °F 94% 30.07 in 0.2 mi Calm Calm - N/A Fog Fog
3:39 AM 55.4 °F 53.6 °F 94% 30.07 in 0.2 mi East 4.6 mph - N/A Fog Fog
3:56 AM 54.0 °F 52.0 °F 93% 30.06 in 0.2 mi East 5.8 mph - N/A Fog Fog
4:10 AM 55.4 °F 53.6 °F 94% 30.07 in 1.0 mi ESE 3.5 mph - N/A   Mist
4:13 AM 55.4 °F 53.6 °F 94% 30.07 in 2.0 mi ESE 3.5 mph - N/A   Scattered Clouds
4:31 AM 53.6 °F 51.8 °F 94% 30.07 in 1.0 mi ESE 3.5 mph - N/A   Partly Cloudy
4:43 AM 55.4 °F 53.6 °F 94% 30.06 in 2.5 mi ESE 3.5 mph - N/A   Partly Cloudy
4:56 AM 55.9 °F 53.1 °F 90% 30.04 in 2.5 mi Calm Calm - N/A   Partly Cloudy
5:08 AM 53.6 °F 51.8 °F 94% 30.06 in 1.2 mi East 4.6 mph - N/A   Clear
5:26 AM 55.4 °F 53.6 °F 94% 30.06 in 3.0 mi ESE 5.8 mph - N/A   Clear
5:38 AM 55.4 °F 53.6 °F 94% 30.06 in 2.0 mi East 5.8 mph - N/A   Mostly Cloudy
5:49 AM 57.2 °F 55.4 °F 94% 30.06 in 4.0 mi Calm Calm - N/A   Mostly Cloudy
5:56 AM 57.0 °F 55.0 °F 93% 30.04 in 4.0 mi ESE 3.5 mph - N/A   Overcast
6:45 AM 55.4 °F 53.6 °F 94% 30.06 in 3.0 mi Calm Calm - N/A   Overcast
6:52 AM 57.2 °F 53.6 °F 88% 30.06 in 4.0 mi Calm Calm - N/A   Overcast
6:56 AM 57.0 °F 54.0 °F 89% 30.05 in 4.0 mi East 3.5 mph - N/A   Overcast
7:21 AM 57.2 °F 53.6 °F 88% 30.06 in 2.5 mi Calm Calm - N/A   Overcast
7:40 AM 57.2 °F 55.4 °F 94% 30.06 in 3.0 mi Calm Calm - N/A   Overcast
7:56 AM 57.0 °F 55.0 °F 93% 30.04 in 2.0 mi East 3.5 mph - N/A   Overcast
8:21 AM 57.2 °F 55.4 °F 94% 30.05 in 2.0 mi Calm Calm - N/A   Overcast
8:54 AM 59.0 °F 55.4 °F 88% 30.05 in 3.0 mi East 3.5 mph - N/A   Overcast
8:55 AM 59.0 °F 55.9 °F 90% 30.04 in 3.0 mi East 3.5 mph - N/A   Overcast
9:11 AM 60.8 °F 57.2 °F 88% 30.04 in 3.0 mi East 5.8 mph - N/A   Mostly Cloudy
9:32 AM 62.6 °F 57.2 °F 82% 30.04 in 6.0 mi SE 3.5 mph - N/A   Scattered Clouds
9:56 AM 63.0 °F 57.9 °F 84% 30.02 in 7.0 mi Variable 4.6 mph - N/A   Mostly Cloudy
10:29 AM 64.4 °F 59.0 °F 83% 30.05 in 8.0 mi Variable 4.6 mph - N/A   Overcast
10:56 AM 68.0 °F 61.0 °F 78% 30.01 in 7.0 mi South 5.8 mph - N/A   Scattered Clouds
11:56 AM 72.0 °F 62.1 °F 71% 30.01 in 7.0 mi SSE 5.8 mph - N/A   Scattered Clouds
12:56 PM 75.0 °F 61.0 °F 62% 30.00 in 10.0 mi SW 9.2 mph - N/A   Mostly Cloudy
1:11 PM 75.2 °F 60.8 °F 61% 30.02 in 10.0 mi SW 9.2 mph - N/A   Overcast
1:56 PM 75.0 °F 61.0 °F 62% 29.98 in 10.0 mi WSW 8.1 mph - N/A   Overcast
2:13 PM 77.0 °F 62.6 °F 61% 29.99 in 10.0 mi Variable 4.6 mph - N/A   Mostly Cloudy
2:56 PM 77.0 °F 62.1 °F 60% 29.95 in 10.0 mi SSW 4.6 mph - N/A   Mostly Cloudy
3:56 PM 75.9 °F 62.1 °F 62% 29.94 in 10.0 mi South 5.8 mph - N/A   Overcast
4:56 PM 75.9 °F 63.0 °F 64% 29.92 in 9.0 mi South 4.6 mph - N/A   Overcast
5:56 PM 75.0 °F 62.1 °F 64% 29.89 in 8.0 mi SSE 5.8 mph - N/A   Clear
6:56 PM 73.0 °F 62.1 °F 68% 29.89 in 10.0 mi SSE 3.5 mph - N/A   Clear
7:56 PM 70.0 °F 62.1 °F 76% 29.90 in 10.0 mi SSE 3.5 mph - N/A   Clear
8:56 PM 69.1 °F 62.1 °F 78% 29.91 in 10.0 mi SSE 5.8 mph - N/A   Scattered Clouds
9:56 PM 70.0 °F 61.0 °F 73% 29.89 in 10.0 mi SSE 4.6 mph - N/A   Clear
10:56 PM 66.9 °F 61.0 °F 81% 29.89 in 10.0 mi SSE 5.8 mph - N/A   Clear
11:56 PM 66.0 °F 60.1 °F 81% 29.86 in 10.0 mi SE 6.9 mph - N/A   Clear